This demonstration page uses our WeatherBlox Daily Observations layout. Learn more.

Left ArrowRight Arrow

Hourly Observations for September 14, 2020

Temp ( °F °C ) Dew Point ( °F °C ) Humidity (%) Winds ( mph kmh ) Pressure ( in mb ) Visibility ( mi km ) Precip ( " mm )
12:51 am 00:51 Clear 70 21.1 42 5.6 37 37 SE 6 9 29.96 1015 10 16.0934 0 0
1:51 am 01:51 Clear 69 20.6 43 6.1 39 39 E 6 9 29.97 1015 10 16.0934 0 0
2:51 am 02:51 Clear 67 19.4 42 5.6 41 41 E 7 11 29.97 1015 10 16.0934 0 0
3:51 am 03:51 Clear 68 20 40 4.4 36 36 SSE 7 11 29.98 1015 10 16.0934 0 0
4:51 am 04:51 Clear 69 20.6 40 4.4 35 35 ESE 10 17 29.99 1016 10 16.0934 0 0
5:51 am 05:51 Clear 71 21.7 40 4.4 32 32 ESE 12 19 30.02 1017 10 16.0934 0 0
6:51 am 06:51 Sunny 71 21.7 40 4.4 32 32 ESE 12 19 30.05 1018 10 16.0934 0 0
7:51 am 07:51 Sunny 75 23.9 40 4.4 28 28 E 10 17 30.06 1018 10 16.0934 0 0
8:51 am 08:51 Sunny 79 26.1 45 7.2 30 30 ESE 10 17 30.07 1018 10 16.0934 0 0
9:51 am 09:51 Sunny 81 27.2 46 7.8 29 29 SSE 6 9 30.07 1018 10 16.0934 0 0
10:51 am 10:51 Sunny 84 28.9 52 11.1 33 33 SSE 8 13 30.05 1018 10 16.0934 0 0
11:51 am 11:51 Sunny 85 29.4 53 11.7 33 33 SE 10 17 30.04 1017 10 16.0934 0 0
12:51 pm 12:51 Sunny 89 31.7 53 11.7 29 29 SE 14 22 30.01 1016 10 16.0934 0 0
1:51 pm 13:51 Sunny 90 32.2 50 10 25 25 SE 8 13 29.97 1015 10 16.0934 0 0
2:51 pm 14:51 Partly Cloudy 89 31.7 52 11.1 28 28 SSE 10 17 29.95 1014 10 16.0934 0 0
3:51 pm 15:51 Sunny 89 31.7 51 10.6 27 27 SSW 10 17 29.94 1014 10 16.0934 0 0
4:51 pm 16:51 Mostly Sunny 88 31.1 50 10 27 27 SE 13 20 29.93 1014 10 16.0934 0 0
5:51 pm 17:51 Sunny 87 30.6 49 9.4 27 27 SE 6 9 29.93 1014 10 16.0934 0 0
6:51 pm 18:51 Clear 85 29.4 50 10 30 30 SE 6 9 29.94 1014 10 16.0934 0 0
7:51 pm 19:51 Clear 83 28.3 49 9.4 31 31 SE 7 11 29.96 1015 10 16.0934 0 0
8:51 pm 20:51 Clear 80 26.7 49 9.4 34 34 ESE 7 11 29.99 1016 10 16.0934 0 0
9:51 pm 21:51 Clear 77 25 49 9.4 37 37 E 8 13 30.01 1016 10 16.0934 0 0
10:51 pm 22:51 Clear 77 25 56 13.3 48 48 E 10 17 30.03 1017 10 16.0934 0 0
11:51 pm 23:51 Clear 76 24.4 55 12.8 48 48 E 16 26 30.04 1017 10 16.0934 0 0

Powered by AerisWeather